Year,Month,Day,Hour,Minute,Value (Times are PST for temperature in C)
2011,08,23,01,07,15.60
2011,08,23,01,08,15.60
2011,08,23,01,09,15.60
2011,08,23,01,10,15.60
2011,08,23,01,11,15.60
2011,08,23,01,12,15.60
2011,08,23,01,13,15.60
2011,08,23,01,14,15.60
2011,08,23,01,15,15.60
2011,08,23,01,16,15.60
2011,08,23,01,17,15.60
2011,08,23,01,18,15.60
2011,08,23,01,19,15.60
2011,08,23,01,20,15.60
2011,08,23,01,21,15.60
2011,08,23,01,22,15.60
2011,08,23,01,23,15.60
2011,08,23,01,24,15.60
2011,08,23,01,25,15.60
2011,08,23,01,26,15.60
2011,08,23,01,27,15.60
2011,08,23,01,28,15.60
2011,08,23,01,29,15.60
2011,08,23,01,30,15.60
2011,08,23,01,31,15.60
2011,08,23,01,32,15.60
2011,08,23,01,33,15.60
2011,08,23,01,34,15.60
2011,08,23,01,35,15.60
2011,08,23,01,36,15.60
2011,08,23,01,37,15.70
2011,08,23,01,38,15.70
2011,08,23,01,39,15.70
2011,08,23,01,40,15.70
2011,08,23,01,41,15.70
2011,08,23,01,42,15.70
2011,08,23,01,43,15.70
2011,08,23,01,44,15.70
2011,08,23,01,45,15.70
2011,08,23,01,46,15.70
2011,08,23,01,47,15.70
2011,08,23,01,48,15.70
2011,08,23,01,49,15.70
2011,08,23,01,50,15.70
2011,08,23,01,51,15.70
2011,08,23,01,52,16.00
2011,08,23,01,53,16.00
2011,08,23,01,54,16.00
2011,08,23,01,55,16.00
2011,08,23,01,56,16.00
2011,08,23,01,57,16.00
2011,08,23,01,58,16.00
2011,08,23,01,59,16.00
2011,08,23,02,00,16.00
2011,08,23,02,01,16.00
2011,08,23,02,02,16.00
2011,08,23,02,03,16.00
2011,08,23,02,04,16.00
2011,08,23,02,05,16.00
2011,08,23,02,06,16.00
2011,08,23,02,07,15.90
2011,08,23,02,08,15.90
2011,08,23,02,09,15.90
2011,08,23,02,10,15.90
2011,08,23,02,11,15.90
2011,08,23,02,12,15.90
2011,08,23,02,13,15.90
2011,08,23,02,14,15.90
2011,08,23,02,15,15.90
2011,08,23,02,16,15.90
2011,08,23,02,17,15.90
2011,08,23,02,18,15.90
2011,08,23,02,19,15.90
2011,08,23,02,20,15.90
2011,08,23,02,21,15.90
2011,08,23,02,22,15.80
2011,08,23,02,23,15.80
2011,08,23,02,24,15.80
2011,08,23,02,25,15.80
2011,08,23,02,26,15.80
2011,08,23,02,27,15.80
2011,08,23,02,28,15.80
2011,08,23,02,29,15.80
2011,08,23,02,30,15.80
2011,08,23,02,31,15.80
2011,08,23,02,32,15.80
2011,08,23,02,33,15.80
2011,08,23,02,34,15.80
2011,08,23,02,35,15.80
2011,08,23,02,36,15.80
2011,08,23,02,37,15.70
2011,08,23,02,38,15.70
2011,08,23,02,39,15.70
2011,08,23,02,40,15.70
2011,08,23,02,41,15.70
2011,08,23,02,42,15.70
2011,08,23,02,43,15.70
2011,08,23,02,44,15.70
2011,08,23,02,45,15.70
2011,08,23,02,46,15.70
2011,08,23,02,47,15.70
2011,08,23,02,48,15.70
2011,08,23,02,49,15.70
2011,08,23,02,50,15.70
2011,08,23,02,51,15.70
2011,08,23,02,52,16.10
2011,08,23,02,53,16.10
2011,08,23,02,54,16.10
2011,08,23,02,55,16.10
2011,08,23,02,56,16.10
2011,08,23,02,57,16.10
2011,08,23,02,58,16.10
2011,08,23,02,59,16.10
2011,08,23,03,00,16.10
2011,08,23,03,01,16.10
2011,08,23,03,02,16.10
2011,08,23,03,03,16.10
2011,08,23,03,04,16.10
2011,08,23,03,05,16.10
2011,08,23,03,06,16.10
2011,08,23,03,07,15.80
2011,08,23,03,08,15.80
2011,08,23,03,09,15.80
2011,08,23,03,10,15.80
2011,08,23,03,11,15.80
2011,08,23,03,12,15.80
2011,08,23,03,13,15.80
2011,08,23,03,14,15.80
2011,08,23,03,15,15.80
2011,08,23,03,16,15.80
2011,08,23,03,17,15.80
2011,08,23,03,18,15.80
2011,08,23,03,19,15.80
2011,08,23,03,20,15.80
2011,08,23,03,21,15.80
2011,08,23,03,22,15.70
2011,08,23,03,23,15.70
2011,08,23,03,24,15.70
2011,08,23,03,25,15.70
2011,08,23,03,26,15.70
2011,08,23,03,27,15.70
2011,08,23,03,28,15.70
2011,08,23,03,29,15.70
2011,08,23,03,30,15.70
2011,08,23,03,31,15.70
2011,08,23,03,32,15.70
2011,08,23,03,33,15.70
2011,08,23,03,34,15.70
2011,08,23,03,35,15.70
2011,08,23,03,36,15.70
2011,08,23,03,37,15.50
2011,08,23,03,38,15.50
2011,08,23,03,39,15.50
2011,08,23,03,40,15.50
2011,08,23,03,41,15.50
2011,08,23,03,42,15.50
2011,08,23,03,43,15.50
2011,08,23,03,44,15.50
2011,08,23,03,45,15.50
2011,08,23,03,46,15.50
2011,08,23,03,47,15.50
2011,08,23,03,48,15.50
2011,08,23,03,49,15.50
2011,08,23,03,50,15.50
2011,08,23,03,51,15.50
2011,08,23,03,52,15.40
2011,08,23,03,53,15.40
2011,08,23,03,54,15.40
2011,08,23,03,55,15.40
2011,08,23,03,56,15.40
2011,08,23,03,57,15.40
2011,08,23,03,58,15.40
2011,08,23,03,59,15.40
2011,08,23,04,00,15.40
2011,08,23,04,01,15.40
2011,08,23,04,02,15.40
2011,08,23,04,03,15.40
2011,08,23,04,04,15.40
2011,08,23,04,05,15.40
2011,08,23,04,06,15.40
2011,08,23,04,07,15.50
2011,08,23,04,08,15.50
2011,08,23,04,09,15.50
2011,08,23,04,10,15.50
2011,08,23,04,11,15.50
2011,08,23,04,12,15.50
2011,08,23,04,13,15.50
2011,08,23,04,14,15.50
2011,08,23,04,15,15.50
2011,08,23,04,16,15.50
2011,08,23,04,17,15.50
2011,08,23,04,18,15.50
2011,08,23,04,19,15.50
2011,08,23,04,20,15.50
2011,08,23,04,21,15.50
2011,08,23,04,22,15.20
2011,08,23,04,23,15.20
2011,08,23,04,24,15.20
2011,08,23,04,25,15.20
2011,08,23,04,26,15.20
2011,08,23,04,27,15.20
2011,08,23,04,28,15.20
2011,08,23,04,29,15.20
2011,08,23,04,30,15.20
2011,08,23,04,31,15.20
2011,08,23,04,32,15.20
2011,08,23,04,33,15.20
2011,08,23,04,34,15.20
2011,08,23,04,35,15.20
2011,08,23,04,36,15.20
2011,08,23,04,37,13.90
2011,08,23,04,38,13.90
2011,08,23,04,39,13.90
2011,08,23,04,40,13.90
2011,08,23,04,41,13.90
2011,08,23,04,42,13.90
2011,08,23,04,43,13.90
2011,08,23,04,44,13.90
2011,08,23,04,45,13.90
2011,08,23,04,46,13.90
2011,08,23,04,47,13.90
2011,08,23,04,48,13.90
2011,08,23,04,49,13.90
2011,08,23,04,50,13.90
2011,08,23,04,51,13.90
2011,08,23,04,52,13.80
2011,08,23,04,53,13.80
2011,08,23,04,54,13.80
2011,08,23,04,55,13.80
2011,08,23,04,56,13.80
2011,08,23,04,57,13.80
2011,08,23,04,58,13.80
2011,08,23,04,59,13.80
2011,08,23,05,00,13.80
2011,08,23,05,01,13.80
2011,08,23,05,02,13.80
2011,08,23,05,03,13.80
2011,08,23,05,04,13.80
2011,08,23,05,05,13.80
2011,08,23,05,06,13.80
2011,08,23,05,07,13.90
2011,08,23,05,08,13.90
2011,08,23,05,09,13.90
2011,08,23,05,10,13.90
2011,08,23,05,11,13.90
2011,08,23,05,12,13.90
2011,08,23,05,13,13.90
2011,08,23,05,14,13.90
2011,08,23,05,15,13.90
2011,08,23,05,16,13.90
2011,08,23,05,17,13.90
2011,08,23,05,18,13.90
2011,08,23,05,19,13.90
2011,08,23,05,20,13.90
2011,08,23,05,21,13.90
2011,08,23,05,22,13.70
2011,08,23,05,23,13.70
2011,08,23,05,24,13.70
2011,08,23,05,25,13.70
2011,08,23,05,26,13.70
2011,08,23,05,27,13.70
2011,08,23,05,28,13.70
2011,08,23,05,29,13.70
2011,08,23,05,30,13.70
2011,08,23,05,31,13.70
2011,08,23,05,32,13.70
2011,08,23,05,33,13.70
2011,08,23,05,34,13.70
2011,08,23,05,35,13.70
2011,08,23,05,36,13.70
2011,08,23,05,37,13.60
2011,08,23,05,38,13.60
2011,08,23,05,39,13.60
2011,08,23,05,40,13.60
2011,08,23,05,41,13.60
2011,08,23,05,42,13.60
2011,08,23,05,43,13.60
2011,08,23,05,44,13.60
2011,08,23,05,45,13.60
2011,08,23,05,46,13.60
2011,08,23,05,47,13.60
2011,08,23,05,48,13.60
2011,08,23,05,49,13.60
2011,08,23,05,50,13.60
2011,08,23,05,51,13.60
2011,08,23,05,52,13.90
2011,08,23,05,53,13.90
2011,08,23,05,54,13.90
2011,08,23,05,55,13.90
2011,08,23,05,56,13.90
2011,08,23,05,57,13.90
2011,08,23,05,58,13.90
2011,08,23,05,59,13.90
2011,08,23,06,00,13.90
2011,08,23,06,01,13.90
2011,08,23,06,02,13.90
2011,08,23,06,03,13.90
2011,08,23,06,04,13.90
2011,08,23,06,05,13.90
2011,08,23,06,06,13.90
2011,08,23,06,07,15.10
2011,08,23,06,08,15.10
2011,08,23,06,09,15.10
2011,08,23,06,10,15.10
2011,08,23,06,11,15.10
2011,08,23,06,12,15.10
2011,08,23,06,13,15.10
2011,08,23,06,14,15.10
2011,08,23,06,15,15.10
2011,08,23,06,16,15.10
2011,08,23,06,17,15.10
2011,08,23,06,18,15.10
2011,08,23,06,19,15.10
2011,08,23,06,20,15.10
2011,08,23,06,21,15.10
2011,08,23,06,22,15.20
2011,08,23,06,23,15.20
2011,08,23,06,24,15.20
2011,08,23,06,25,15.20
2011,08,23,06,26,15.20
2011,08,23,06,27,15.20
2011,08,23,06,28,15.20
2011,08,23,06,29,15.20
2011,08,23,06,30,15.20
2011,08,23,06,31,15.20
2011,08,23,06,32,15.20
2011,08,23,06,33,15.20
2011,08,23,06,34,15.20
2011,08,23,06,35,15.20
2011,08,23,06,36,15.20
2011,08,23,06,37,15.10
2011,08,23,06,38,15.10
2011,08,23,06,39,15.10
2011,08,23,06,40,15.10
2011,08,23,06,41,15.10
2011,08,23,06,42,15.10
2011,08,23,06,43,15.10
2011,08,23,06,44,15.10
2011,08,23,06,45,15.10
2011,08,23,06,46,15.10
2011,08,23,06,47,15.10
2011,08,23,06,48,15.10
2011,08,23,06,49,15.10
2011,08,23,06,50,15.10
2011,08,23,06,51,15.10
2011,08,23,06,52,14.90
2011,08,23,06,53,14.90
2011,08,23,06,54,14.90
2011,08,23,06,55,14.90
2011,08,23,06,56,14.90
2011,08,23,06,57,14.90
2011,08,23,06,58,14.90
2011,08,23,06,59,14.90
2011,08,23,07,00,14.90
2011,08,23,07,01,14.90
2011,08,23,07,02,14.90
2011,08,23,07,03,14.90
2011,08,23,07,04,14.90
2011,08,23,07,05,14.90
2011,08,23,07,06,14.90
2011,08,23,07,07,14.70
2011,08,23,07,08,14.70
2011,08,23,07,09,14.70
2011,08,23,07,10,14.70
2011,08,23,07,11,14.70
2011,08,23,07,12,14.70
2011,08,23,07,13,14.70
2011,08,23,07,14,14.70
2011,08,23,07,15,14.70
2011,08,23,07,16,14.70
2011,08,23,07,17,14.70
2011,08,23,07,18,14.70
2011,08,23,07,19,14.70
2011,08,23,07,20,14.70
2011,08,23,07,21,14.70
2011,08,23,07,22,14.70
2011,08,23,07,23,14.70
2011,08,23,07,24,14.70
2011,08,23,07,25,14.70
2011,08,23,07,26,14.70
2011,08,23,07,27,14.70
2011,08,23,07,28,14.70
2011,08,23,07,29,14.70
2011,08,23,07,30,14.70
2011,08,23,07,31,14.70
2011,08,23,07,32,14.70
2011,08,23,07,33,14.70
2011,08,23,07,34,14.70
2011,08,23,07,35,14.70
2011,08,23,07,36,14.70
2011,08,23,07,37,14.40
2011,08,23,07,38,14.40
2011,08,23,07,39,14.40
2011,08,23,07,40,14.40
2011,08,23,07,41,14.40
2011,08,23,07,42,14.40
2011,08,23,07,43,14.40
2011,08,23,07,44,14.40
2011,08,23,07,45,14.40
2011,08,23,07,46,14.40
2011,08,23,07,47,14.40
2011,08,23,07,48,14.40
2011,08,23,07,49,14.40
2011,08,23,07,50,14.40
2011,08,23,07,51,14.40
2011,08,23,07,52,13.60
2011,08,23,07,53,13.60
2011,08,23,07,54,13.60
2011,08,23,07,55,13.60
2011,08,23,07,56,13.60
2011,08,23,07,57,13.60
2011,08,23,07,58,13.60
2011,08,23,07,59,13.60
2011,08,23,08,00,13.60
2011,08,23,08,01,13.60
2011,08,23,08,02,13.60
2011,08,23,08,03,13.60
2011,08,23,08,04,13.60
2011,08,23,08,05,13.60
2011,08,23,08,06,13.60
2011,08,23,08,07,13.60
2011,08,23,08,08,13.60
2011,08,23,08,09,13.60
2011,08,23,08,10,13.60
2011,08,23,08,11,13.60
2011,08,23,08,12,13.60
2011,08,23,08,13,13.60
2011,08,23,08,14,13.60
2011,08,23,08,15,13.60
2011,08,23,08,16,13.60
2011,08,23,08,17,13.60
2011,08,23,08,18,13.60
2011,08,23,08,19,13.60
2011,08,23,08,20,13.60
2011,08,23,08,21,13.60
2011,08,23,08,22,13.00
2011,08,23,08,23,13.00
2011,08,23,08,24,13.00
2011,08,23,08,25,13.00
2011,08,23,08,26,13.00
2011,08,23,08,27,13.00
2011,08,23,08,28,13.00
2011,08,23,08,29,13.00
2011,08,23,08,30,13.00
2011,08,23,08,31,13.00
2011,08,23,08,32,13.00
2011,08,23,08,33,13.00
2011,08,23,08,34,13.00
2011,08,23,08,35,13.00
2011,08,23,08,36,13.00
2011,08,23,08,37,13.10
2011,08,23,08,38,13.10
2011,08,23,08,39,13.10
2011,08,23,08,40,13.10
2011,08,23,08,41,13.10
2011,08,23,08,42,13.10
2011,08,23,08,43,13.10
2011,08,23,08,44,13.10
2011,08,23,08,45,13.10
2011,08,23,08,46,13.10
2011,08,23,08,47,13.10
2011,08,23,08,48,13.10
2011,08,23,08,49,13.10
2011,08,23,08,50,13.10
2011,08,23,08,51,13.10
2011,08,23,08,52,13.20
2011,08,23,08,53,13.20
2011,08,23,08,54,13.20
2011,08,23,08,55,13.20
2011,08,23,08,56,13.20
2011,08,23,08,57,13.20
2011,08,23,08,58,13.20
2011,08,23,08,59,13.20
2011,08,23,09,00,13.20
2011,08,23,09,01,13.20
2011,08,23,09,02,13.20
2011,08,23,09,03,13.20
2011,08,23,09,04,13.20
2011,08,23,09,05,13.20
2011,08,23,09,06,13.20
2011,08,23,09,07,12.90
2011,08,23,09,08,12.90
2011,08,23,09,09,12.90
2011,08,23,09,10,12.90
2011,08,23,09,11,12.90
2011,08,23,09,12,12.90
2011,08,23,09,13,12.90
2011,08,23,09,14,12.90
2011,08,23,09,15,12.90
2011,08,23,09,16,12.90
2011,08,23,09,17,12.90
2011,08,23,09,18,12.90
2011,08,23,09,19,12.90
2011,08,23,09,20,12.90
2011,08,23,09,21,12.90
2011,08,23,09,22,12.80
2011,08,23,09,23,12.80
2011,08,23,09,24,12.80
2011,08,23,09,25,12.80
2011,08,23,09,26,12.80
2011,08,23,09,27,12.80
2011,08,23,09,28,12.80
2011,08,23,09,29,12.80
2011,08,23,09,30,12.80
2011,08,23,09,31,12.80
2011,08,23,09,32,12.80
2011,08,23,09,33,12.80
2011,08,23,09,34,12.80
2011,08,23,09,35,12.80
2011,08,23,09,36,12.80
2011,08,23,09,37,12.70
2011,08,23,09,38,12.70
2011,08,23,09,39,12.70
2011,08,23,09,40,12.70
2011,08,23,09,41,12.70
2011,08,23,09,42,12.70
2011,08,23,09,43,12.70
2011,08,23,09,44,12.70
2011,08,23,09,45,12.70
2011,08,23,09,46,12.70
2011,08,23,09,47,12.70
2011,08,23,09,48,12.70
2011,08,23,09,49,12.70
2011,08,23,09,50,12.70
2011,08,23,09,51,12.70
2011,08,23,09,52,12.90
2011,08,23,09,53,12.90
2011,08,23,09,54,12.90
2011,08,23,09,55,12.90
2011,08,23,09,56,12.90
2011,08,23,09,57,12.90
2011,08,23,09,58,12.90
2011,08,23,09,59,12.90
2011,08,23,10,00,12.90
2011,08,23,10,01,12.90
2011,08,23,10,02,12.90
2011,08,23,10,03,12.90
2011,08,23,10,04,12.90
2011,08,23,10,05,12.90
2011,08,23,10,06,12.90
2011,08,23,10,07,12.70
2011,08,23,10,08,12.70
2011,08,23,10,09,12.70
2011,08,23,10,10,12.70
2011,08,23,10,11,12.70
2011,08,23,10,12,12.70
2011,08,23,10,13,12.70
2011,08,23,10,14,12.70
2011,08,23,10,15,12.70
2011,08,23,10,16,12.70
2011,08,23,10,17,12.70
2011,08,23,10,18,12.70
2011,08,23,10,19,12.70
2011,08,23,10,20,12.70
2011,08,23,10,21,12.70
2011,08,23,10,22,13.10
2011,08,23,10,23,13.10
2011,08,23,10,24,13.10
2011,08,23,10,25,13.10
2011,08,23,10,26,13.10
2011,08,23,10,27,13.10
2011,08,23,10,28,13.10
2011,08,23,10,29,13.10
2011,08,23,10,30,13.10
2011,08,23,10,31,13.10
2011,08,23,10,32,13.10
2011,08,23,10,33,13.10
2011,08,23,10,34,13.10
2011,08,23,10,35,13.10
2011,08,23,10,36,13.10
2011,08,23,10,37,13.10
2011,08,23,10,38,13.10
2011,08,23,10,39,13.10
2011,08,23,10,40,13.10
2011,08,23,10,41,13.10
2011,08,23,10,42,13.10
2011,08,23,10,43,13.10
2011,08,23,10,44,13.10
2011,08,23,10,45,13.10
2011,08,23,10,46,13.10
2011,08,23,10,47,13.10
2011,08,23,10,48,13.10
2011,08,23,10,49,13.10
2011,08,23,10,50,13.10
2011,08,23,10,51,13.10
2011,08,23,10,52,13.10
2011,08,23,10,53,13.10
2011,08,23,10,54,13.10
2011,08,23,10,55,13.10
2011,08,23,10,56,13.10
2011,08,23,10,57,13.10
2011,08,23,10,58,13.10
2011,08,23,10,59,13.10
2011,08,23,11,00,13.10
2011,08,23,11,01,13.10
2011,08,23,11,02,13.10
2011,08,23,11,03,13.10
2011,08,23,11,04,13.10
2011,08,23,11,05,13.10
2011,08,23,11,06,13.10
2011,08,23,11,07,13.20
2011,08,23,11,08,13.20
2011,08,23,11,09,13.20
2011,08,23,11,10,13.20
2011,08,23,11,11,13.20
2011,08,23,11,12,13.20
2011,08,23,11,13,13.20
2011,08,23,11,14,13.20
2011,08,23,11,15,13.20
2011,08,23,11,16,13.20
2011,08,23,11,17,13.20
2011,08,23,11,18,13.20
2011,08,23,11,19,13.20
2011,08,23,11,20,13.20
2011,08,23,11,21,13.20
2011,08,23,11,22,14.00
2011,08,23,11,23,14.00
2011,08,23,11,24,14.00
2011,08,23,11,25,14.00
2011,08,23,11,26,14.00
2011,08,23,11,27,14.00
2011,08,23,11,28,14.00
2011,08,23,11,29,14.00
2011,08,23,11,30,14.00
2011,08,23,11,31,14.00
2011,08,23,11,32,14.00
2011,08,23,11,33,14.00
2011,08,23,11,34,14.00
2011,08,23,11,35,14.00
2011,08,23,11,36,14.00
2011,08,23,11,37,13.80
2011,08,23,11,38,13.80
2011,08,23,11,39,13.80
2011,08,23,11,40,13.80
2011,08,23,11,41,13.80
2011,08,23,11,42,13.80
2011,08,23,11,43,13.80
2011,08,23,11,44,13.80
2011,08,23,11,45,13.80
2011,08,23,11,46,13.80
2011,08,23,11,47,13.80
2011,08,23,11,48,13.80
2011,08,23,11,49,13.80
2011,08,23,11,50,13.80
2011,08,23,11,51,13.80
2011,08,23,11,52,13.90
2011,08,23,11,53,13.90
2011,08,23,11,54,13.90
2011,08,23,11,55,13.90
2011,08,23,11,56,13.90
2011,08,23,11,57,13.90
2011,08,23,11,58,13.90
2011,08,23,11,59,13.90
2011,08,23,12,00,13.90
2011,08,23,12,01,13.90
2011,08,23,12,02,13.90
2011,08,23,12,03,13.90
2011,08,23,12,04,13.90
2011,08,23,12,05,13.90
2011,08,23,12,06,13.90
2011,08,23,12,07,13.80
2011,08,23,12,08,13.80
2011,08,23,12,09,13.80
2011,08,23,12,10,13.80
2011,08,23,12,11,13.80
2011,08,23,12,12,13.80
2011,08,23,12,13,13.80
2011,08,23,12,14,13.80
2011,08,23,12,15,13.80
2011,08,23,12,16,13.80
2011,08,23,12,17,13.80
2011,08,23,12,18,13.80
2011,08,23,12,19,13.80
2011,08,23,12,20,13.80
2011,08,23,12,21,13.80
2011,08,23,12,22,14.10
2011,08,23,12,23,14.10
2011,08,23,12,24,14.10
2011,08,23,12,25,14.10
2011,08,23,12,26,14.10
2011,08,23,12,27,14.10
2011,08,23,12,28,14.10
2011,08,23,12,29,14.10
2011,08,23,12,30,14.10
2011,08,23,12,31,14.10
2011,08,23,12,32,14.10
2011,08,23,12,33,14.10
2011,08,23,12,34,14.10
2011,08,23,12,35,14.10
2011,08,23,12,36,14.10
2011,08,23,12,37,14.10
2011,08,23,12,38,14.10
2011,08,23,12,39,14.10
2011,08,23,12,40,14.10
2011,08,23,12,41,14.10
2011,08,23,12,42,14.10
2011,08,23,12,43,14.10
2011,08,23,12,44,14.10
2011,08,23,12,45,14.10
2011,08,23,12,46,14.10
2011,08,23,12,47,14.10
2011,08,23,12,48,14.10
2011,08,23,12,49,14.10
2011,08,23,12,50,14.10
2011,08,23,12,51,14.10
2011,08,23,12,52,14.60
2011,08,23,12,53,14.60
2011,08,23,12,54,14.60
2011,08,23,12,55,14.60
2011,08,23,12,56,14.60
2011,08,23,12,57,14.60
2011,08,23,12,58,14.60
2011,08,23,12,59,14.60
2011,08,23,13,00,14.60
2011,08,23,13,01,14.60
2011,08,23,13,02,14.60
2011,08,23,13,03,14.60
2011,08,23,13,04,14.60
2011,08,23,13,05,14.60
2011,08,23,13,06,14.60
2011,08,23,13,07,14.20
2011,08,23,13,08,14.20
2011,08,23,13,09,14.20
2011,08,23,13,10,14.20
2011,08,23,13,11,14.20
2011,08,23,13,12,14.20
2011,08,23,13,13,14.20
2011,08,23,13,14,14.20
2011,08,23,13,15,14.20
2011,08,23,13,16,14.20
2011,08,23,13,17,14.20
2011,08,23,13,18,14.20
2011,08,23,13,19,14.20
2011,08,23,13,20,14.20
2011,08,23,13,21,14.20
2011,08,23,13,22,14.10
2011,08,23,13,23,14.10
2011,08,23,13,24,14.10
2011,08,23,13,25,14.10
2011,08,23,13,26,14.10
2011,08,23,13,27,14.10
2011,08,23,13,28,14.10
2011,08,23,13,29,14.10
2011,08,23,13,30,14.10
2011,08,23,13,31,14.10
2011,08,23,13,32,14.10
2011,08,23,13,33,14.10
2011,08,23,13,34,14.10
2011,08,23,13,35,14.10
2011,08,23,13,36,14.10
2011,08,23,13,37,14.10
2011,08,23,13,38,14.10
2011,08,23,13,39,14.10
2011,08,23,13,40,14.10
2011,08,23,13,41,14.10
2011,08,23,13,42,14.10
2011,08,23,13,43,14.10
2011,08,23,13,44,14.10
2011,08,23,13,45,14.10
2011,08,23,13,46,14.10
2011,08,23,13,47,14.10
2011,08,23,13,48,14.10
2011,08,23,13,49,14.10
2011,08,23,13,50,14.10
2011,08,23,13,51,14.10
2011,08,23,13,52,13.90
2011,08,23,13,53,13.90
2011,08,23,13,54,13.90
2011,08,23,13,55,13.90
2011,08,23,13,56,13.90
2011,08,23,13,57,13.90
2011,08,23,13,58,13.90
2011,08,23,13,59,13.90
2011,08,23,14,00,13.90
2011,08,23,14,01,13.90
2011,08,23,14,02,13.90
2011,08,23,14,03,13.90
2011,08,23,14,04,13.90
2011,08,23,14,05,13.90
2011,08,23,14,06,13.90
2011,08,23,14,07,14.20
2011,08,23,14,08,14.20
2011,08,23,14,09,14.20
2011,08,23,14,10,14.20
2011,08,23,14,11,14.20
2011,08,23,14,12,14.20
2011,08,23,14,13,14.20
2011,08,23,14,14,14.20
2011,08,23,14,15,14.20
2011,08,23,14,16,14.20
2011,08,23,14,17,14.20
2011,08,23,14,18,14.20
2011,08,23,14,19,14.20
2011,08,23,14,20,14.20
2011,08,23,14,21,14.20
2011,08,23,14,22,14.30
2011,08,23,14,23,14.30
2011,08,23,14,24,14.30
2011,08,23,14,25,14.30
2011,08,23,14,26,14.30
2011,08,23,14,27,14.30
2011,08,23,14,28,14.30
2011,08,23,14,29,14.30
2011,08,23,14,30,14.30
2011,08,23,14,31,14.30
2011,08,23,14,32,14.30
2011,08,23,14,33,14.30
2011,08,23,14,34,14.30
2011,08,23,14,35,14.30
2011,08,23,14,36,14.30
2011,08,23,14,37,14.80
2011,08,23,14,38,14.80
2011,08,23,14,39,14.80
2011,08,23,14,40,14.80
2011,08,23,14,41,14.80
2011,08,23,14,42,14.80
2011,08,23,14,43,14.80
2011,08,23,14,44,14.80
2011,08,23,14,45,14.80
2011,08,23,14,46,14.80
2011,08,23,14,47,14.80
2011,08,23,14,48,14.80
2011,08,23,14,49,14.80
2011,08,23,14,50,14.80
2011,08,23,14,51,14.80
2011,08,23,14,52,14.90
2011,08,23,14,53,14.90
2011,08,23,14,54,14.90
2011,08,23,14,55,14.90
2011,08,23,14,56,14.90
2011,08,23,14,57,14.90
2011,08,23,14,58,14.90
2011,08,23,14,59,14.90
2011,08,23,15,00,14.90
2011,08,23,15,01,14.90
2011,08,23,15,02,14.90
2011,08,23,15,03,14.90
2011,08,23,15,04,14.90
2011,08,23,15,05,14.90
2011,08,23,15,06,14.90
2011,08,23,15,07,15.20
2011,08,23,15,08,15.20
2011,08,23,15,09,15.20
2011,08,23,15,10,15.20
2011,08,23,15,11,15.20
2011,08,23,15,12,15.20
2011,08,23,15,13,15.20
2011,08,23,15,14,15.20
2011,08,23,15,15,15.20
2011,08,23,15,16,15.20
2011,08,23,15,17,15.20
2011,08,23,15,18,15.20
2011,08,23,15,19,15.20
2011,08,23,15,20,15.20
2011,08,23,15,21,15.20
2011,08,23,15,22,15.10
2011,08,23,15,23,15.10
2011,08,23,15,24,15.10
2011,08,23,15,25,15.10
2011,08,23,15,26,15.10
2011,08,23,15,27,15.10
2011,08,23,15,28,15.10
2011,08,23,15,29,15.10
2011,08,23,15,30,15.10
2011,08,23,15,31,15.10
2011,08,23,15,32,15.10
2011,08,23,15,33,15.10
2011,08,23,15,34,15.10
2011,08,23,15,35,15.10
2011,08,23,15,36,15.10
2011,08,23,15,37,14.80
2011,08,23,15,38,14.80
2011,08,23,15,39,14.80
2011,08,23,15,40,14.80
2011,08,23,15,41,14.80
2011,08,23,15,42,14.80
2011,08,23,15,43,14.80
2011,08,23,15,44,14.80
2011,08,23,15,45,14.80
2011,08,23,15,46,14.80
2011,08,23,15,47,14.80
2011,08,23,15,48,14.80
2011,08,23,15,49,14.80
2011,08,23,15,50,14.80
2011,08,23,15,51,14.80
2011,08,23,15,52,15.10
2011,08,23,15,53,15.10
2011,08,23,15,54,15.10
2011,08,23,15,55,15.10
2011,08,23,15,56,15.10
2011,08,23,15,57,15.10
2011,08,23,15,58,15.10
2011,08,23,15,59,15.10
2011,08,23,16,00,15.10
2011,08,23,16,01,15.10
2011,08,23,16,02,15.10
2011,08,23,16,03,15.10
2011,08,23,16,04,15.10
2011,08,23,16,05,15.10
2011,08,23,16,06,15.10
2011,08,23,16,07,15.30
2011,08,23,16,08,15.30
2011,08,23,16,09,15.30
2011,08,23,16,10,15.30
2011,08,23,16,11,15.30
2011,08,23,16,12,15.30
2011,08,23,16,13,15.30
2011,08,23,16,14,15.30
2011,08,23,16,15,15.30
2011,08,23,16,16,15.30
2011,08,23,16,17,15.30
2011,08,23,16,18,15.30
2011,08,23,16,19,15.30
2011,08,23,16,20,15.30
2011,08,23,16,21,15.30
2011,08,23,16,22,15.30
2011,08,23,16,23,15.30
2011,08,23,16,24,15.30
2011,08,23,16,25,15.30
2011,08,23,16,26,15.30
2011,08,23,16,27,15.30
2011,08,23,16,28,15.30
2011,08,23,16,29,15.30
2011,08,23,16,30,15.30
2011,08,23,16,31,15.30
2011,08,23,16,32,15.30
2011,08,23,16,33,15.30
2011,08,23,16,34,15.30
2011,08,23,16,35,15.30
2011,08,23,16,36,15.30
2011,08,23,16,37,14.80
2011,08,23,16,38,14.80
2011,08,23,16,39,14.80
2011,08,23,16,40,14.80
2011,08,23,16,41,14.80
2011,08,23,16,42,14.80
2011,08,23,16,43,14.80
2011,08,23,16,44,14.80
2011,08,23,16,45,14.80
2011,08,23,16,46,14.80
2011,08,23,16,47,14.80
2011,08,23,16,48,14.80
2011,08,23,16,49,14.80
2011,08,23,16,50,14.80
2011,08,23,16,51,14.80
2011,08,23,16,52,14.70
2011,08,23,16,53,14.70
2011,08,23,16,54,14.70
2011,08,23,16,55,14.70
2011,08,23,16,56,14.70
2011,08,23,16,57,14.70
2011,08,23,16,58,14.70
2011,08,23,16,59,14.70
2011,08,23,17,00,14.70
2011,08,23,17,01,14.70
2011,08,23,17,02,14.70
2011,08,23,17,03,14.70
2011,08,23,17,04,14.70
2011,08,23,17,05,14.70
2011,08,23,17,06,14.70
2011,08,23,17,07,14.70
2011,08,23,17,08,14.70
2011,08,23,17,09,14.70
2011,08,23,17,10,14.70
2011,08,23,17,11,14.70
2011,08,23,17,12,14.70
2011,08,23,17,13,14.70
2011,08,23,17,14,14.70
2011,08,23,17,15,14.70
2011,08,23,17,16,14.70
2011,08,23,17,17,14.70
2011,08,23,17,18,14.70
2011,08,23,17,19,14.70
2011,08,23,17,20,14.70
2011,08,23,17,21,14.70
2011,08,23,17,22,15.30
2011,08,23,17,23,15.30
2011,08,23,17,24,15.30
2011,08,23,17,25,15.30
2011,08,23,17,26,15.30
2011,08,23,17,27,15.30
2011,08,23,17,28,15.30
2011,08,23,17,29,15.30
2011,08,23,17,30,15.30
2011,08,23,17,31,15.30
2011,08,23,17,32,15.30
2011,08,23,17,33,15.30
2011,08,23,17,34,15.30
2011,08,23,17,35,15.30
2011,08,23,17,36,15.30
2011,08,23,17,37,15.10
2011,08,23,17,38,15.10
2011,08,23,17,39,15.10
2011,08,23,17,40,15.10
2011,08,23,17,41,15.10
2011,08,23,17,42,15.10
2011,08,23,17,43,15.10
2011,08,23,17,44,15.10
2011,08,23,17,45,15.10
2011,08,23,17,46,15.10
2011,08,23,17,47,15.10
2011,08,23,17,48,15.10
2011,08,23,17,49,15.10
2011,08,23,17,50,15.10
2011,08,23,17,51,15.10
2011,08,23,17,52,14.90
2011,08,23,17,53,14.90
2011,08,23,17,54,14.90
2011,08,23,17,55,14.90
2011,08,23,17,56,14.90
2011,08,23,17,57,14.90
2011,08,23,17,58,14.90
2011,08,23,17,59,14.90
2011,08,23,18,00,14.90
2011,08,23,18,01,14.90
2011,08,23,18,02,14.90
2011,08,23,18,03,14.90
2011,08,23,18,04,14.90
2011,08,23,18,05,14.90
2011,08,23,18,06,14.90
2011,08,23,18,07,14.80
2011,08,23,18,08,14.80
2011,08,23,18,09,14.80
2011,08,23,18,10,14.80
2011,08,23,18,11,14.80
2011,08,23,18,12,14.80
2011,08,23,18,13,14.80
2011,08,23,18,14,14.80
2011,08,23,18,15,14.80
2011,08,23,18,16,14.80
2011,08,23,18,17,14.80
2011,08,23,18,18,14.80
2011,08,23,18,19,14.80
2011,08,23,18,20,14.80
2011,08,23,18,21,14.80
2011,08,23,18,22,14.40
2011,08,23,18,23,14.40
2011,08,23,18,24,14.40
2011,08,23,18,25,14.40
2011,08,23,18,26,14.40